2023/09/13 00:00:00,26.5,18.4
2023/09/13 00:10:00,26.5,18.5
2023/09/13 00:20:00,26.5,18.6
2023/09/13 00:30:00,26.4,18.4
2023/09/13 00:40:00,26.3,18.5
2023/09/13 00:50:00,26.4,18.3
2023/09/13 01:00:00,26.5,18.4
2023/09/13 01:10:00,26.5,18.7
2023/09/13 01:20:00,26.5,18.5
2023/09/13 01:30:00,26.5,18.6
2023/09/13 01:40:00,26.4,18.4
2023/09/13 01:50:00,26.4,18.3
2023/09/13 02:00:00,26.4,18.4
2023/09/13 02:10:00,26.5,18.3
2023/09/13 02:20:00,26.5,18.2
2023/09/13 02:30:00,26.4,18.3
2023/09/13 02:40:00,26.4,18.3
2023/09/13 02:50:00,26.4,18.2
2023/09/13 03:00:00,26.4,18.3
2023/09/13 03:10:00,26.4,18.3
2023/09/13 03:20:00,26.3,18.2
2023/09/13 03:30:00,26.3,18.2
2023/09/13 03:40:00,26.3,18.2
2023/09/13 03:50:00,26.3,18.1
2023/09/13 04:00:00,26.2,18.1
2023/09/13 04:10:00,26.1,18.0
2023/09/13 04:20:00,26.1,17.8
2023/09/13 04:30:00,26.1,17.8
2023/09/13 04:40:00,26.3,18.0
2023/09/13 04:50:00,26.2,18.0
2023/09/13 05:00:00,26.3,17.9
2023/09/13 05:10:00,26.3,17.9
2023/09/13 05:20:00,26.3,17.9
2023/09/13 05:30:00,26.2,17.7
2023/09/13 05:40:00,26.3,17.7
2023/09/13 05:50:00,26.3,17.8
2023/09/13 06:00:00,26.2,17.9
2023/09/13 06:10:00,26.2,17.8
2023/09/13 06:20:00,26.2,17.9
2023/09/13 06:30:00,26.2,18.1
2023/09/13 06:40:00,26.2,18.1
2023/09/13 06:50:00,26.1,18.2
2023/09/13 07:00:00,26.1,18.5
2023/09/13 07:10:00,26.4,18.5
2023/09/13 07:20:00,26.4,18.8
2023/09/13 07:30:00,26.5,19.2
2023/09/13 07:40:00,26.3,19.7
2023/09/13 07:50:00,26.2,20.0
2023/09/13 08:00:00,26.4,20.3
2023/09/13 08:10:00,26.4,20.4
2023/09/13 08:20:00,26.3,20.7
2023/09/13 08:30:00,26.5,21.6
2023/09/13 08:40:00,26.5,21.8
2023/09/13 08:50:00,26.6,22.2
2023/09/13 09:00:00,26.7,22.8
2023/09/13 09:10:00,26.8,23.0
2023/09/13 09:20:00,26.8,24.1
2023/09/13 09:30:00,26.7,24.2
2023/09/13 09:40:00,26.7,24.4
2023/09/13 09:50:00,26.8,24.9
2023/09/13 10:00:00,26.6,25.2
2023/09/13 10:10:00,26.6,25.7
2023/09/13 10:20:00,26.4,25.7
2023/09/13 10:30:00,26.0,25.9
2023/09/13 10:40:00,26.3,27.5
2023/09/13 10:50:00,31.1,28.2
2023/09/13 11:00:00,40.1,28.2
2023/09/13 11:10:00,27.0,28.5
2023/09/13 11:20:00,23.8,27.5
2023/09/13 11:30:00,61.2,27.2
2023/09/13 11:40:00,62.5,27.7
2023/09/13 11:50:00,---,27.5
2023/09/13 12:00:00,---,27.4
2023/09/13 12:10:00,61.6,29.1
2023/09/13 12:20:00,---,29.4
2023/09/13 12:30:00, 0.2,28.3
2023/09/13 12:40:00, 0.2,30.1
2023/09/13 12:50:00, 0.3,30.0
2023/09/13 13:00:00, 0.3,28.9
2023/09/13 13:10:00, 0.2,28.5
2023/09/13 13:20:00, 0.0,28.6
2023/09/13 13:30:00, 0.0,29.1
2023/09/13 13:40:00, 0.0,29.6
2023/09/13 13:50:00, 0.2,30.1
2023/09/13 14:00:00, 0.2,29.2
2023/09/13 14:10:00, 0.2,29.5
2023/09/13 14:20:00,20.5,28.6
2023/09/13 14:30:00,53.5,28.6
2023/09/13 14:40:00,55.5,27.9
2023/09/13 14:50:00,58.9,26.1
2023/09/13 15:00:00,59.7,26.0
2023/09/13 15:10:00,59.7,25.8
2023/09/13 15:20:00,59.9,26.2
2023/09/13 15:30:00,59.7,26.5
2023/09/13 15:40:00,59.9,26.5
2023/09/13 15:50:00,59.9,26.5
2023/09/13 16:00:00,59.8,26.4
2023/09/13 16:10:00,59.9,26.9
2023/09/13 16:20:00,59.6,27.6
2023/09/13 16:30:00,58.9,26.6
2023/09/13 16:40:00,59.4,25.8
2023/09/13 16:50:00,60.1,25.1
2023/09/13 17:00:00,60.4,24.8
2023/09/13 17:10:00,60.4,25.0
2023/09/13 17:20:00,60.5,24.5
2023/09/13 17:30:00,60.5,24.1
2023/09/13 17:40:00,60.5,23.7
2023/09/13 17:50:00,60.5,23.6
2023/09/13 18:00:00,60.6,23.6
2023/09/13 18:10:00,60.6,23.2
2023/09/13 18:20:00,60.6,23.0
2023/09/13 18:30:00,60.7,22.7
2023/09/13 18:40:00,60.7,22.5
2023/09/13 18:50:00,60.7,22.4
2023/09/13 19:00:00,60.7,22.3
2023/09/13 19:10:00,60.8,22.2
2023/09/13 19:20:00,60.8,21.8
2023/09/13 19:30:00,60.8,22.0
2023/09/13 19:40:00,60.9,22.0
2023/09/13 19:50:00,60.9,21.4
2023/09/13 20:00:00,60.9,22.1
2023/09/13 20:10:00,60.7,22.3
2023/09/13 20:20:00,60.7,22.2
2023/09/13 20:30:00,60.7,22.2
2023/09/13 20:40:00,60.7,22.1
2023/09/13 20:50:00,60.6,22.0
2023/09/13 21:00:00,60.6,22.5
2023/09/13 21:10:00,60.6,22.3
2023/09/13 21:20:00,60.6,22.1
2023/09/13 21:30:00,60.6,22.0
2023/09/13 21:40:00,60.8,22.0
2023/09/13 21:50:00,60.8,22.1
2023/09/13 22:00:00,60.8,21.9
2023/09/13 22:10:00,60.7,21.6
2023/09/13 22:20:00,60.7,21.7
2023/09/13 22:30:00,60.7,21.4
2023/09/13 22:40:00,60.7,21.4
2023/09/13 22:50:00,60.7,21.1
2023/09/13 23:00:00,60.8,21.9
2023/09/13 23:10:00,60.8,21.6
2023/09/13 23:20:00,60.8,21.9
2023/09/13 23:30:00,60.8,21.9
2023/09/13 23:40:00,60.8,22.0
2023/09/13 23:50:00,60.7,21.7
